Carlsbad, CA

1:36 AM PDT on April 23, 2018 (GMT -0700)
McClellan-Palomar

Weather History for KCRQ - November, 2011

Change the Weather History Date:

Monday, November 21, 2011

  Actual Average Record
Temperature  
Mean Temperature 54 °F -  
Max Temperature 61 °F 64 °F 82 °F (2002)
Min Temperature 48 °F 48 °F 41 °F (2004)
Degree Days  
Heating Degree Days 10    
Growing Degree Days 4 (Base 50)    
Moisture  
Dew Point 48 °F    
Average Humidity 84    
Maximum Humidity 100    
Minimum Humidity 60    
Precipitation  
Precipitation 0.01 in - - ()
Sea Level Pressure  
Sea Level Pressure 30.12 in    
Wind  
Wind Speed 1 mph (NW)    
Max Wind Speed 9 mph    
Max Gust Speed -    
Visibility 6 miles    
Events Fog    
Averages and records for this station are not official NWS values.
T = Trace of Precipitation, MM = Missing Value Source: NWS Daily Summary

Daily Weather History Graph

Daily Weather History Graph

Search for Another Location

Airport or City:

Astronomy

Nov. 21, 2011 Rise Set
Actual Time 6:25 AM PST 4:44 PM PST
Civil Twilight 5:58 AM PST 5:10 PM PST
Nautical Twilight 5:28 AM PST 5:41 PM PST
Astronomical Twilight 4:58 AM PST 6:10 PM PST
Moon 2:19 AM PST (11/21) 2:01 PM PST (11/21)
Length of Visible Light 11h 12m
Length of Day
10h 19m
Waning Crescent, 16% of the Moon is Illuminated
Nov 21
Waning Crescent
Nov 24
New
Dec 2
First Quarter
Dec 10
Full
Dec 17
Last Quarter

Hourly Weather History & Observations

Time (PST) Temp. Dew Point Humidity Pressure Visibility Wind Dir Wind Speed Gust Speed Precip Events Conditions
12:11 AM 53.6 °F 51.8 °F 94% 30.00 in 10.0 mi Calm Calm - N/A   Overcast
12:49 AM 53.6 °F 51.8 °F 94% 30.00 in 10.0 mi Calm Calm - N/A   Overcast
12:53 AM 54.0 °F 51.1 °F 90% 30.00 in 10.0 mi Calm Calm - N/A   Overcast
1:53 AM 53.1 °F 51.1 °F 93% 30.00 in 10.0 mi Calm Calm - N/A   Mostly Cloudy
2:21 AM 53.6 °F 51.8 °F 94% 30.02 in 2.0 mi Calm Calm - N/A   Mostly Cloudy
2:24 AM 53.6 °F 51.8 °F 94% 30.02 in 0.8 mi Calm Calm - N/A   Mostly Cloudy
2:32 AM 53.6 °F 51.8 °F 94% 30.01 in 0.5 mi Calm Calm - N/A Fog Fog
2:53 AM 52.0 °F 51.1 °F 97% 30.02 in 0.5 mi Calm Calm - N/A Fog Fog
3:27 AM 51.8 °F 50.0 °F 94% 30.03 in 0.5 mi Calm Calm - N/A Fog Fog
3:39 AM 51.8 °F 48.2 °F 88% 30.04 in 0.2 mi Calm Calm - N/A Fog Fog
4:04 AM 50.0 °F 48.2 °F 94% 30.04 in 0.2 mi Calm Calm - N/A Fog Fog
4:24 AM 50.0 °F 48.2 °F 94% 30.04 in 1.0 mi Calm Calm - N/A   Mist
4:34 AM 50.0 °F 48.2 °F 94% 30.04 in 0.2 mi NE 3.5 mph - N/A Fog Fog
4:51 AM 48.2 °F 48.2 °F 100% 30.05 in 0.5 mi East 3.5 mph - N/A Fog Fog
4:53 AM 48.9 °F 48.0 °F 97% 30.05 in 0.5 mi Calm Calm - N/A Fog Fog
5:42 AM 48.2 °F 46.4 °F 93% 30.08 in 1.2 mi ENE 3.5 mph - N/A   Scattered Clouds
5:50 AM 48.2 °F 46.4 °F 93% 30.08 in 2.5 mi Calm Calm - N/A   Mostly Cloudy
5:53 AM 48.9 °F 46.9 °F 93% 30.08 in 2.0 mi Calm Calm - N/A   Mostly Cloudy
6:01 AM 48.2 °F 46.4 °F 93% 30.09 in 1.8 mi Calm Calm - N/A   Partly Cloudy
6:05 AM 48.2 °F 46.4 °F 93% 30.09 in 3.0 mi Calm Calm - N/A   Partly Cloudy
6:53 AM 48.9 °F 46.9 °F 93% 30.12 in 10.0 mi East 3.5 mph - N/A   Clear
7:53 AM 53.1 °F 48.9 °F 86% 30.14 in 10.0 mi East 3.5 mph - N/A   Clear
8:53 AM 57.0 °F 48.0 °F 72% 30.17 in 10.0 mi Calm Calm - N/A   Clear
9:53 AM 57.9 °F 48.0 °F 70% 30.18 in 10.0 mi Calm Calm - N/A   Scattered Clouds
10:53 AM 59.0 °F 48.2 °F 67% 30.19 in 10.0 mi Variable 4.6 mph - N/A   Partly Cloudy
11:39 AM 60.8 °F 48.2 °F 63% 30.18 in 10.0 mi SW 5.8 mph - N/A   Mostly Cloudy
11:49 AM 60.8 °F 48.2 °F 63% 30.18 in 10.0 mi WSW 9.2 mph - N/A   Scattered Clouds
11:53 AM 60.1 °F 48.0 °F 64% 30.17 in 10.0 mi West 8.1 mph - N/A   Scattered Clouds
12:53 PM 61.0 °F 46.9 °F 60% 30.17 in 10.0 mi Variable 6.9 mph - N/A   Clear
1:53 PM 60.1 °F 46.0 °F 60% 30.17 in 10.0 mi West 8.1 mph - N/A   Clear
2:53 PM 60.1 °F 46.9 °F 62% 30.18 in 10.0 mi West 6.9 mph - N/A   Clear
3:53 PM 59.0 °F 48.0 °F 67% 30.19 in 10.0 mi WNW 5.8 mph - N/A   Clear
4:53 PM 57.0 °F 48.0 °F 72% 30.20 in 10.0 mi Calm Calm - N/A   Clear
5:53 PM 55.9 °F 48.0 °F 75% 30.20 in 10.0 mi Calm Calm - N/A   Clear
6:53 PM 55.0 °F 48.0 °F 77% 30.22 in 10.0 mi Calm Calm - N/A   Clear
7:53 PM 53.1 °F 48.0 °F 83% 30.22 in 10.0 mi Calm Calm - N/A   Clear
8:53 PM 52.0 °F 48.0 °F 86% 30.23 in 10.0 mi Calm Calm - N/A   Clear
9:53 PM 51.1 °F 46.9 °F 86% 30.25 in 10.0 mi Calm Calm - N/A   Clear
10:53 PM 50.0 °F 46.0 °F 86% 30.25 in 8.0 mi Calm Calm - N/A   Clear
11:53 PM 51.1 °F 46.0 °F 83% 30.25 in 10.0 mi Calm Calm - 0.01 in   Clear